GW7244 Weather Reports


time (UTC)temp
F
wind
direction
speed
knots
gust
knots
rain 1hr
in
rain 24hr
in
rain mn
in
humidity
%
barometer
mb
20260506013402 63 33 0.0 0.9 0.00 0.00 0.00 71 1013.9
20260506012857 63 33 0.0 0.9 0.00 0.00 0.00 68 1013.9
20260506012354 63 33 0.0 0.0 0.00 0.00 0.00 70 1014.0
20260506011852 63 33 0.0 0.9 0.00 0.00 0.00 67 1014.1
20260506011348 63 33 0.0 0.9 0.00 0.00 0.00 66 1014.0
20260506010845 63 52 0.0 0.9 0.00 0.00 0.00 66 1014.0
20260506010344 63 52 0.0 0.9 0.00 0.00 0.00 66 1014.1
20260506005840 63 67 0.0 0.9 0.00 0.00 0.00 66 1014.2
20260506005337 63 50 0.0 0.9 0.00 0.00 0.00 64 1014.0
20260506004833 63 53 0.9 0.9 0.00 0.00 0.00 64 1013.9
20260506004331 64 51 0.9 0.9 0.00 0.00 0.00 64 1013.9
20260506003827 64 26 0.9 1.7 0.00 0.00 0.00 63 1014.0
20260506003323 64 32 0.0 0.9 0.00 0.00 0.00 63 1014.0
20260506002820 63 32 0.0 0.9 0.00 0.00 0.00 63 1014.1
20260506002316 63 23 0.9 1.7 0.00 0.00 0.00 65 1014.1
20260506001812 63 7 1.7 2.6 0.00 0.00 0.00 64 1014.2
20260506001309 63 17 0.9 2.6 0.00 0.00 0.00 64 1014.1
20260506000806 63 20 1.7 1.7 0.00 0.00 0.00 66 1014.3
20260506000304 63 18 0.9 2.6 0.00 0.00 0.00 65 1014.0
20260505235800 63 31 0.9 1.7 0.00 0.00 0.00 65 1014.3
20260505235258 63 358 1.7 3.5 0.00 0.00 0.00 65 1014.2
20260505234755 63 337 1.7 3.5 0.00 0.00 0.00 65 1014.4
20260505234252 63 34 0.9 1.7 0.00 0.00 0.00 66 1014.4
20260505233749 63 30 0.9 2.6 0.00 0.00 0.00 66 1014.5
20260505233247 63 353 2.6 3.5 0.00 0.00 0.00 64 1014.2
20260505232744 63 19 1.7 1.7 0.00 0.00 0.00 66 1014.4
20260505232241 63 353 3.5 5.2 0.00 0.00 0.00 66 1014.4
20260505231738 63 297 0.9 3.5 0.00 0.00 0.00 66 1014.4
20260505231237 63 19 0.9 2.6 0.00 0.00 0.00 66 1014.6
20260505230735 63 19 0.0 2.6 0.00 0.00 0.00 65 1014.5
20260505230231 64 359 1.7 2.6 0.00 0.00 0.00 64 1014.5
20260505225727 64 13 1.7 2.6 0.00 0.00 0.00 64 1014.6
20260505225225 64 21 2.6 3.5 0.00 0.00 0.00 65 1014.5
20260505224720 64 30 0.9 1.7 0.00 0.00 0.00 65 1014.3
20260505224218 64 355 2.6 3.5 0.00 0.00 0.00 63 1014.6
20260505223715 64 17 1.7 2.6 0.00 0.00 0.00 63 1014.6
20260505223211 64 33 0.9 0.9 0.00 0.00 0.00 63 1014.7
20260505222707 64 15 0.0 0.9 0.00 0.00 0.00 64 1014.7
20260505222203 64 6 1.7 2.6 0.00 0.00 0.00 62 1014.5
20260505221701 65 16 0.9 2.6 0.00 0.00 0.00 63 1014.7
20260505221157 64 28 0.0 0.9 0.00 0.00 0.00 64 1014.8
20260505220654 64 17 1.7 3.5 0.00 0.00 0.00 63 1014.8
20260505220152 64 19 0.9 1.7 0.00 0.00 0.00 63 1014.9
20260505215650 64 34 0.0 2.6 0.00 0.00 0.00 64 1014.8
20260505215148 64 63 0.0 1.7 0.00 0.00 0.00 63 1014.8
20260505214645 64 24 0.9 1.7 0.00 0.00 0.00 66 1014.8
20260505214142 64 10 1.7 2.6 0.00 0.00 0.00 64 1015.0
20260505213640 63 38 0.0 0.9 0.00 0.00 0.00 65 1014.9
20260505213136 62 27 0.9 1.7 0.00 0.00 0.00 67 1014.9
20260505212632 62 346 1.7 3.5 0.00 0.00 0.00 67 1014.8
20260505212130 62 330 1.7 2.6 0.00 0.00 0.00 66 1014.9
20260505211627 63 355 1.7 2.6 0.00 0.00 0.00 64 1014.9
20260505211124 63 88 0.9 1.7 0.00 0.00 0.00 64 1014.8
20260505210621 63 31 0.0 0.9 0.00 0.00 0.00 64 1015.0
20260505210117 64 27 0.9 1.7 0.00 0.00 0.00 64 1015.0
20260505205615 63 19 0.9 1.7 0.00 0.00 0.00 68 1015.1
20260505205113 63 76 0.9 2.6 0.00 0.00 0.00 66 1015.1
20260505204610 64 68 0.9 0.9 0.00 0.00 0.00 65 1015.3
20260505204107 63 11 1.7 2.6 0.00 0.00 0.00 64 1015.1
20260505203603 62 37 0.0 0.9 0.00 0.00 0.00 65 1015.3
20260505203101 62 3 1.7 2.6 0.00 0.00 0.00 67 1015.1
20260505202556 62 358 0.9 1.7 0.00 0.00 0.00 69 1015.4
20260505202053 61 72 0.9 2.6 0.00 0.00 0.00 69 1015.3
20260505201550 62 76 1.7 2.6 0.00 0.00 0.00 68 1015.4
20260505201048 62 83 1.7 2.6 0.00 0.00 0.00 68 1015.5
20260505200545 62 19 0.9 1.7 0.00 0.00 0.00 67 1015.7
20260505200042 61 39 0.0 0.9 0.00 0.00 0.00 69 1015.6
20260505195538 60 8 0.9 1.7 0.00 0.00 0.00 70 1015.5
20260505195036 60 46 0.9 1.7 0.00 0.00 0.00 71 1015.7
20260505194533 60 356 1.7 1.7 0.00 0.00 0.00 71 1015.6
20260505194028 60 22 0.0 0.9 0.00 0.00 0.00 72 1015.3
20260505193525 60 31 0.0 1.7 0.00 0.00 0.00 71 1015.7
20260505193022 60 10 1.7 1.7 0.00 0.00 0.00 70 1015.6
20260505192521 61 49 1.7 1.7 0.00 0.00 0.00 69 1015.5
20260505192018 61 38 0.9 1.7 0.00 0.00 0.00 69 1015.6
20260505191516 61 28 0.9 1.7 0.00 0.00 0.00 69 1015.7
20260505191014 61 8 1.7 1.7 0.00 0.00 0.00 72 1015.7
20260505190508 60 62 0.0 0.9 0.00 0.00 0.00 72 1015.7
20260505190005 60 49 0.0 0.9 0.00 0.00 0.00 72 1015.7
20260505185502 59 80 0.0 1.7 0.00 0.00 0.00 72 1015.6
20260505184958 59 77 0.0 1.7 0.00 0.00 0.00 74 1015.8
20260505184455 58 146 1.7 1.7 0.00 0.00 0.00 74 1015.7
20260505183951 58 91 0.0 0.9 0.00 0.00 0.00 74 1015.6
20260505183449 58 88 0.9 0.9 0.00 0.00 0.00 75 1015.9
20260505182945 58 120 0.9 1.7 0.00 0.00 0.00 74 1015.7
20260505182442 58 18 1.7 1.7 0.00 0.00 0.00 75 1015.7
20260505181938 58 36 0.0 0.9 0.00 0.00 0.00 75 1015.5
20260505181436 59 13 1.7 1.7 0.00 0.00 0.00 73 1015.5
20260505180932 59 28 0.0 0.9 0.00 0.00 0.00 73 1015.5
20260505180429 58 50 0.0 0.9 0.00 0.00 0.00 74 1015.8
20260505175925 58 34 0.0 0.9 0.00 0.00 0.00 75 1015.5
20260505175421 58 72 0.9 0.9 0.00 0.00 0.00 76 1015.6
20260505174918 58 92 0.9 1.7 0.00 0.00 0.00 74 1015.4
20260505174416 58 73 0.9 0.9 0.00 0.00 0.00 75 1015.5
20260505173912 58 125 0.9 2.6 0.00 0.00 0.00 74 1015.6
20260505173408 58 55 0.9 0.9 0.00 0.00 0.00 73 1015.7
20260505172905 58 78 0.0 1.7 0.00 0.00 0.00 74 1015.4
20260505172403 58 69 0.0 0.9 0.00 0.00 0.00 74 1015.4
20260505171903 58 19 0.9 1.7 0.00 0.00 0.00 73 1015.3
20260505171400 58 26 0.9 1.7 0.00 0.00 0.00 74 1015.3
20260505170856 58 88 0.9 1.7 0.00 0.00 0.00 75 1015.4
20260505170353 58 56 0.9 1.7 0.00 0.00 0.00 74 1015.1
20260505165848 58 75 0.0 0.9 0.00 0.00 0.00 75 1015.1
20260505165344 57 43 0.0 0.9 0.00 0.00 0.00 75 1015.1
20260505164840 57 53 0.0 0.9 0.00 0.00 0.00 74 1015.1
20260505164337 57 133 0.9 3.5 0.00 0.00 0.00 74 1014.9
20260505163835 57 101 0.0 1.7 0.00 0.00 0.00 75 1015.1
20260505163334 57 35 0.0 1.7 0.00 0.00 0.00 76 1015.0
20260505162832 57 35 0.0 0.9 0.00 0.00 0.00 77 1015.0
20260505162328 56 87 0.0 1.7 0.00 0.00 0.00 78 1015.1
20260505161825 56 92 2.6 3.5 0.00 0.00 0.00 78 1014.9
20260505161322 56 79 0.9 1.7 0.00 0.00 0.00 78 1015.0
20260505160819 56 158 1.7 2.6 0.00 0.00 0.00 78 1014.9
20260505160317 56 88 1.7 2.6 0.00 0.00 0.00 79 1015.0
20260505153256 55 98 0.9 2.6 0.00 0.00 0.00 80 1015.0
20260505152754 55 116 0.9 3.5 0.00 0.00 0.00 81 1014.8
20260505152250 55 98 0.9 2.6 0.00 0.00 0.00 80 1015.0
20260505151749 55 101 1.7 2.6 0.00 0.00 0.00 81 1014.9
20260505151247 55 163 2.6 3.5 0.00 0.00 0.00 81 1014.9
20260505150744 55 92 0.9 2.6 0.00 0.00 0.00 81 1014.7
20260505150241 55 62 0.0 0.9 0.00 0.00 0.00 80 1015.0
20260505140211 54 88 1.7 1.7 0.00 0.00 0.00 82 1014.0
20260505130135 55 103 0.9 1.7 0.00 0.00 0.00 81 1014.0
20260505124625 55 94 0.0 0.9 0.00 0.00 0.00 81 1013.8
20260505124121 55 94 0.9 1.7 0.00 0.00 0.00 80 1013.7
20260505123617 55 94 0.0 0.0 0.00 0.00 0.00 80 1013.6
20260505123114 55 94 0.0 0.9 0.00 0.00 0.00 80 1013.7
20260505122611 55 94 0.9 1.7 0.00 0.00 0.00 80 1013.7
20260505122108 55 98 0.0 1.7 0.00 0.00 0.00 79 1013.8
20260505121604 55 89 0.0 0.9 0.00 0.00 0.00 80 1013.7
20260505121101 55 89 0.0 0.9 0.00 0.00 0.00 80 1013.9
20260505120557 55 89 0.0 0.9 0.00 0.00 0.00 80 1013.6
20260505120053 55 90 0.0 0.9 0.00 0.00 0.00 80 1013.8
20260505115548 55 70 0.0 0.0 0.00 0.00 0.00 79 1013.7
20260505115046 55 71 0.0 0.9 0.00 0.00 0.00 79 1013.6
20260505114543 55 71 0.0 0.9 0.00 0.00 0.00 79 1013.7
20260505114039 55 77 0.0 0.0 0.00 0.00 0.00 80 1013.7
20260505113535 55 78 0.0 0.9 0.00 0.00 0.00 79 1013.6
20260505113032 55 59 0.0 0.9 0.00 0.00 0.00 79 1013.7
20260505112528 55 59 0.0 0.9 0.00 0.00 0.00 79 1013.5
20260505112026 55 88 0.9 2.6 0.00 0.00 0.00 79 1013.4
20260505111520 55 83 0.0 0.9 0.00 0.00 0.00 79 1013.7
20260505111016 55 83 0.0 0.9 0.00 0.00 0.00 79 1013.5
20260505110513 55 102 0.0 0.9 0.00 0.00 0.00 79 1013.5
20260505101945 55 104 0.0 0.9 0.00 0.00 0.00 78 1013.3
20260505101443 55 107 0.0 0.0 0.00 0.00 0.00 79 1013.2
20260505100940 55 107 0.0 0.9 0.00 0.00 0.00 79 1013.2
20260505100437 55 107 0.0 0.0 0.00 0.00 0.00 79 1013.0
20260505095933 55 108 0.9 0.9 0.00 0.00 0.00 78 1013.1
20260505095430 55 109 0.0 2.6 0.00 0.00 0.00 78 1013.2
20260505094926 55 100 0.0 1.7 0.00 0.00 0.00 78 1013.2
20260505094423 55 103 0.0 0.9 0.00 0.00 0.00 79 1013.0
20260505093919 55 105 0.0 0.9 0.00 0.00 0.00 79 1013.2
20260505093416 55 98 0.0 1.7 0.00 0.00 0.00 79 1013.1
20260505092913 55 100 0.9 1.7 0.00 0.00 0.00 79 1013.2
20260505092412 55 105 0.9 1.7 0.00 0.00 0.00 78 1013.1
20260505091909 55 89 0.9 2.6 0.00 0.00 0.00 78 1013.2
20260505091406 55 147 1.7 2.6 0.00 0.00 0.00 78 1013.0
20260505090903 55 126 1.7 1.7 0.00 0.00 0.00 78 1012.7
20260505090402 56 86 0.9 0.9 0.00 0.00 0.00 78 1012.8
20260505085858 56 98 0.0 1.7 0.00 0.00 0.00 77 1012.8
20260505085356 56 122 1.7 1.7 0.00 0.00 0.00 77 1012.6
20260505084855 56 87 0.0 1.7 0.00 0.00 0.00 76 1012.5
20260505084353 56 83 0.0 1.7 0.00 0.00 0.00 76 1012.7
20260505083850 56 62 0.9 0.9 0.00 0.00 0.00 76 1012.8
20260505083347 56 75 0.0 0.0 0.00 0.00 0.00 76 1012.7
20260505082844 56 75 0.0 1.7 0.00 0.00 0.00 76 1012.8
20260505082340 57 10 0.0 1.7 0.00 0.00 0.00 75 1012.6
20260505081836 57 85 0.0 1.7 0.00 0.00 0.00 75 1012.4
20260505081333 57 67 0.9 1.7 0.00 0.00 0.00 75 1012.7
20260505080830 57 47 0.0 0.9 0.00 0.00 0.00 75 1012.6
20260505080326 57 45 0.9 1.7 0.00 0.00 0.00 74 1012.6
20260505075821 57 31 0.0 0.0 0.00 0.00 0.00 75 1012.6
20260505075318 57 31 0.0 0.0 0.00 0.00 0.00 75 1012.5
20260505074816 57 358 0.9 3.5 0.00 0.00 0.00 74 1012.6
20260505074313 57 74 0.0 0.9 0.00 0.00 0.00 74 1012.3
20260505073810 57 74 0.0 0.9 0.00 0.00 0.00 74 1012.2
20260505073308 57 17 0.9 1.7 0.00 0.00 0.00 74 1012.1
20260505072805 57 127 0.9 3.5 0.00 0.00 0.00 73 1012.1
20260505072301 58 72 0.0 0.9 0.00 0.00 0.00 73 1012.0
20260505071757 58 72 0.0 1.7 0.00 0.00 0.00 72 1012.0
20260505071253 58 71 0.0 0.0 0.00 0.00 0.00 72 1011.7
20260505070751 59 104 0.9 2.6 0.00 0.00 0.00 71 1011.8
20260505070248 59 91 0.9 3.5 0.00 0.00 0.00 71 1011.6
20260505065743 59 174 0.9 6.1 0.00 0.00 0.00 70 1011.9
20260505065240 59 175 3.5 5.2 0.00 0.00 0.00 69 1011.7
20260505064737 60 170 2.6 2.6 0.00 0.00 0.00 70 1011.5
20260505064235 60 109 0.9 1.7 0.00 0.00 0.00 70 1011.5
20260505063732 60 189 2.6 7.0 0.00 0.00 0.00 69 1011.5
20260505063228 60 266 1.7 3.5 0.00 0.00 0.00 69 1011.5
20260505062725 60 123 2.6 5.2 0.00 0.00 0.00 69 1011.3
20260505062223 61 105 0.9 2.6 0.00 0.00 0.00 70 1011.2
20260505061719 61 154 1.7 1.7 0.00 0.00 0.00 69 1011.3
20260505061217 61 126 1.7 2.6 0.00 0.00 0.00 68 1011.3
20260505060714 62 165 2.6 2.6 0.00 0.00 0.00 68 1011.1
20260505060211 62 97 0.0 0.9 0.00 0.00 0.00 68 1011.0
20260505055707 62 145 1.7 2.6 0.00 0.00 0.00 67 1010.9
20260505055203 62 128 1.7 2.6 0.00 0.00 0.00 67 1011.0
20260505054700 63 39 0.0 0.9 0.00 0.00 0.00 69 1011.0
20260505054158 64 84 0.0 0.0 0.00 0.00 0.00 68 1010.9
20260505053656 64 91 0.9 1.7 0.00 0.00 0.00 66 1011.0
20260505053152 64 131 1.7 2.6 0.00 0.00 0.00 66 1011.0
20260505052649 65 146 2.6 3.5 0.00 0.00 0.00 65 1010.8
20260505052147 65 147 1.7 3.5 0.00 0.00 0.00 65 1010.9
20260505051643 65 64 0.9 0.9 0.00 0.00 0.00 66 1010.9
20260505051142 65 67 0.0 0.9 0.00 0.00 0.00 66 1011.1
20260505050639 65 111 0.9 1.7 0.00 0.00 0.00 65 1010.6
20260505050137 65 108 1.7 2.6 0.00 0.00 0.00 66 1010.7
20260505041607 67 34 0.9 0.9 0.00 0.00 0.00 67 1010.1
20260505041104 67 103 0.9 5.2 0.00 0.00 0.00 65 1009.7
20260505040601 67 106 1.7 3.5 0.00 0.00 0.00 66 1009.8
20260505040058 66 155 1.7 3.5 0.00 0.00 0.00 68 1009.7
20260505035555 67 32 0.9 1.7 0.00 0.00 0.00 68 1009.6
20260505035051 67 141 3.5 3.5 0.00 0.00 0.00 67 1009.7
20260505034548 67 93 1.7 1.7 0.00 0.00 0.00 67 1009.5
20260505034044 67 70 0.9 0.9 0.00 0.00 0.00 67 1009.6
20260505033542 67 86 0.0 1.7 0.00 0.00 0.00 68 1009.3
20260505033040 66 97 0.0 0.9 0.00 0.00 0.00 69 1009.4
20260505032537 67 98 0.0 0.9 0.00 0.00 0.00 68 1009.2
20260505032034 67 98 0.0 0.9 0.00 0.00 0.00 68 1009.3
20260505031531 68 98 0.0 0.0 0.00 0.00 0.00 66 1009.3
20260505031027 68 104 0.0 0.9 0.00 0.00 0.00 66 1009.3
20260505030524 68 106 1.7 1.7 0.00 0.00 0.00 65 1009.1
20260505030020 68 106 0.0 0.9 0.00 0.00 0.00 65 1008.8
20260505025516 68 107 0.0 0.0 0.00 0.00 0.00 64 1009.0
20260505025016 69 108 0.0 0.9 0.00 0.00 0.00 64 1009.0
20260505024512 69 102 0.0 0.9 0.00 0.00 0.00 63 1008.9
20260505024009 69 103 0.0 0.9 0.00 0.00 0.00 64 1009.1
20260505023506 70 92 0.9 0.9 0.00 0.00 0.00 62 1008.9
20260505023003 70 49 0.0 0.9 0.00 0.00 0.00 62 1008.9
20260505022501 70 66 0.9 0.9 0.00 0.00 0.00 61 1008.9
20260505021958 70 95 0.9 5.2 0.00 0.00 0.00 60 1008.8
20260505021454 71 113 1.7 1.7 0.00 0.00 0.00 59 1008.8
20260505020950 72 141 3.5 3.5 0.00 0.00 0.00 57 1008.8
20260505020445 72 73 0.9 2.6 0.00 0.00 0.00 58 1008.9
20260505015942 72 78 0.0 2.6 0.00 0.00 0.00 57 1008.7
20260505015439 71 101 0.0 0.9 0.00 0.00 0.00 57 1009.0
20260505014937 71 98 0.9 3.5 0.00 0.00 0.00 58 1009.0
20260505014433 71 108 0.9 2.6 0.00 0.00 0.00 58 1008.9
20260505013931 71 111 0.9 2.6 0.00 0.00 0.00 57 1009.0